Regional Weather Roundup
Issued by NWS

Home | Current Version | Previous Version | Graphics & Text | Print | Product List | Glossary On
Versions: 1 2 3 4 5 6 7 8 9 10 11 12 13 14 15 16 17 18 19 20 21 22 23 24 25 26 27 28 29 30 31 32 33 34 35 36 37 38 39 40 41 42 43 44 45 46 47 48 49 50
000
ASUS43 KDMX 270107
RWRIA

WEATHER ROUNDUP FOR IOWA
NATIONAL WEATHER SERVICE DES MOINES IA
800 PM CDT TUE MAY 26 2015

NOTE: "FAIR" INDICATES FEW OR NO CLOUDS BELOW 12,000 FEET WITH NO
SIGNIFICANT WEATHER AND/OR OBSTRUCTIONS TO VISIBILITY.

* - THESE STATIONS ARE NOT NWS STATIONS...THUS NOT UNDER NWS
QUALITY CONTROL.  THEY ALSO DO NOT REPORT WEATHER SUCH
AS PRECIPITATION OR FOG.

IAZ001>003-012>014-020>022-031>034-043>046-270200-
   NORTHWEST IOWA

CITY           SKY/WX    TMP DP  RH WIND       PRES   REMARKS
CARROLL *      CLOUDY    63  59  88 W9        29.83S
CHEROKEE *     CLOUDY    61  57  88 NW6       29.84R
DENISON *      CLOUDY    63  61  94 NW6       29.82S
LE MARS *      CLOUDY    63  57  82 N5        29.85R
ORANGE CITY *  PTCLDY    59  54  82 CALM      29.84S
SHELDON *      CLOUDY    63  55  77 NW8       29.82S
SIOUX CITY     CLEAR     65  55  70 NE7       29.84R
SPENCER        CLOUDY    60  56  86 W6        29.83R
STORM LAKE *   CLOUDY    59  55  88 NW8       29.84S
$$

IAZ055>058-069>071-079>083-090>094-270200-
   SOUTHWEST IOWA

CITY           SKY/WX    TMP DP  RH WIND       PRES   REMARKS
ATLANTIC *     PTCLDY    63  59  88 W8        29.85S
AUDUBON *      CLOUDY    63  57  82 W3        29.85S
COUNCIL BLFS * CLEAR     66  61  82 W9        29.86S
CRESTON *      PTCLDY    64  61  88 W15G21    29.86R
HARLAN  *      PTCLDY    63  63 100 W8        29.88S
LAMONI         CLEAR     69  62  78 W10       29.85R
RED OAK *      CLEAR     66  59  77 W7        29.86R
SHENANDOAH *   CLEAR     68  59  73 W9        29.87S
$$

IAZ047>049-059>061-072>074-084-270200-
   CENTRAL IOWA

CITY           SKY/WX    TMP DP  RH WIND       PRES   REMARKS
AMES           CLOUDY    64  61  90 W8        29.79F
ANKENY *       MOCLDY    63  57  82 W7        29.80R
CHARITON *     CLEAR     66  61  82 W7        29.83R
DES MOINES     MOCLDY    66  61  84 NW9       29.81R
GRINNELL*      MOCLDY    66  63  88 SW8       29.81R
KNOXVILLE *    PTCLDY    66  61  82 W8        29.80R
MARSHALLTOWN   HVY RAIN  64  62  93 W10       29.78R FOG
PELLA *        CLOUDY    66  66 100 W6        29.82R
PERRY *        MOCLDY    64  61  88 W14       29.82R
$$

IAZ004>006-015-016-023>025-035-036-270200-
   NORTH CENTRAL IOWA

CITY           SKY/WX    TMP DP  RH WIND       PRES   REMARKS
ALGONA *       CLOUDY    61  59  94 N7        29.81S
CLARION *      CLOUDY    61 N/A N/A NW15      29.80R
ESTHERVILLE    CLOUDY    58  54  86 NW9       29.81S
FORT DODGE *   CLOUDY    61  55  82 NW7       29.82R
MASON CITY     LGT RAIN  61  58  90 NW9       29.80S
FOREST CITY *  CLOUDY    59  57  94 NW8       29.80R
IOWA FALLS *   LGT RAIN  64  61  88 W6        29.80R
$$

IAZ007>011-017>019-026>030-037>042-050>054-066-270200-
   NORTHEAST IOWA

CITY           SKY/WX    TMP DP  RH WIND       PRES   REMARKS
CEDAR RAPIDS   PTCLDY    67  63  87 SW8       29.77S
CHARLES CITY * DRIZZLE   61  61 100 W12       29.79S
CLINTON *      PTCLDY    70  61  73 SW12      29.81R
DECORAH *      MOCLDY    61  61 100 VRB6      29.76S
DUBUQUE        PTCLDY    65  60  84 W10       29.77S
MONTICELLO *   PTCLDY    68  63  83 W8        29.77S
OELWEIN *      PTCLDY    64  61  88 NW8       29.79R
WATERLOO       CLEAR     65  59  81 NW6       29.78R
$$

IAZ064-065-067-068-078-270200-
   EAST CENTRAL IOWA

CITY           SKY/WX    TMP DP  RH WIND       PRES   REMARKS
DAVENPORT      MOCLDY    69  61  75 SW6       29.80R
IOWA CITY      LGT RAIN  68  62  81 W9        29.80R
MT. PLEASANT * MOCLDY    70  63  78 W5        29.81R
MUSCATINE *    PTCLDY    68  63  83 W9        29.80S
QUAD CITIES    MOCLDY    71  60  68 SW6       29.79R
$$

IAZ062-063-075>077-085>089-095>099-270200-
   SOUTHEAST IOWA

CITY           SKY/WX    TMP DP  RH WIND       PRES   REMARKS
BURLINGTON     MOCLDY    71  64  78 S6        29.81R
FAIRFIELD *    MOCLDY    70  63  78 SW8       29.81R
FORT MADISON * RAIN      72  63  73 SW7       29.82R
KEOKUK *       MOCLDY    73  63  68 SW8       29.81R
OSKALOOSA *    MOCLDY    68  63  83 SW9       29.80S
CENTERVILLE *  CLEAR     68  68 100 W10       29.85R
OTTUMWA        CLOUDY    68  63  84 SW12      29.80R
WASHINGTON *   PTCLDY    66  64  94 SW7       29.81S
$$

ABBREVIATIONS USED IN REMARKS
   TC - TEMPERATURES IN CELSIUS
  WCI - WIND CHILL INDEX
   HX - HEAT INDEX
  VSB - VISIBILITY
$$



USA.gov is the U.S. government's official web portal to all federal, state and local government web resources and services.